Location: ?????
(33.6267°N, 35.4675°E)
Time: 13:59:58
(UTC+00:00)

NOAA 12 - Pass Details

Date: 12 November 2019
Orbit: 795 x 816 km, 98.5° (Epoch: 14 December)

Event Time Altitude Azimuth Distance (km) Brightness Sun altitude
Rises 15:31:01 0° 164° (SSE) 3,319 7.3 -11.5°
Reaches altitude 10° 15:33:20 10° 164° (SSE) 2,393 6.5 -11.9°
Maximum altitude 15:38:39 86° 78° (ENE) 822 4.1 -13.0°
Drops below altitude 10° 15:44:00 10° 348° (NNW) 2,411 6.6 -14.1°
Sets 15:46:21 0° 348° (NNW) 3,346 7.3 -14.6°
